Starlink 1585

operational
NORAD ID: 46117 Int'l Des: 2020-057 Owner: SPXS Country: US Constellation: starlink
LEOCIRCULARSTARLINK_TYPE

About Starlink 1585

Description loading...

Live Position

Loading 3D Globe...

Upcoming Passes

Altitude History

Altitude vs Time

uPlot chart will show altitude changes over time

Two-Line Element Set

1 46117U 20057A 25257.99714018 .00000780 00000-0 71236-4 0 9991
2 46117 53.0577 5.3334 0001446 92.7944 267.3211 15.06398599279865
Epoch: Sep 14, 2025 • Age: 19 hours

Current Status

Altitude 547.1 km
Velocity 7.59 km/s
Sub-Earth Point 14.69°N, 91.24°E
Launch Date Aug 18, 2020
Age 5 years
Type internet

Technical Details

Classification Payload
Mass 260.00 kg
Dry Mass 248.00 kg
Total Mass 260.00 kg
Length 0.20 m
Diameter 2.80 m
Span 9.00 m
Shape Box + pan
Manufacturer SPXS
Bus Type Starlink
Phase Status In Orbit
Owner/State SPXS/US

Large Constellations

Loading constellations...